Temp
-3 -3 -3 -2 -2 -2 -1 -1 -1 -1 -1 0 1 2 2 3 4 5 5 6 6 6 6 6 7 7 7 8 8 8 8 8 8 7 7 7 7 6 6 6 5 5 5 4
-4 -5 -3 -1 -1 -2 -2 -2 -2 -1 -1 0 1 1 2 3 4 4 5 6 6 6 6 6 7 7 7 7 7 7 7 7 7 7 7 6 6 6 6 5 5 4 4 4
-4 -3 -2 -2 -2 -3 -2 -2 -2 -2 -1 0 -0 1 2 4 4 4 5 6 5 6 6 6 6 7 7 7 7 7 7 7 7 6 6 6 6 6 5 5 4 4 3 3
-4 -4 -3 -2 -4 -3 -3 -2 -2 -3 -3 -2 0 1 2 4 4 4 5 5 5 5 6 6 6 6 7 7 7 7 7 7 6 6 6 5 5 5 5 4 4 3 3 3
-4 -3 -2 -3 -2 -3 -3 -3 -3 -3 -3 -2 -1 -2 0 2 3 5 6 6 6 6 6 6 6 6 6 6 6 6 6 6 6 5 5 5 5 5 4 4 3 3 2 2
-4 -4 -4 -3 -2 -3 -4 -4 -3 -3 -3 -2 -1 -1 1 2 4 5 6 6 6 5 6 6 6 6 6 6 6 6 6 6 5 5 5 5 4 4 4 3 2 2 2 2
-4 -4 -4 -4 -4 -4 -4 -4 -3 -4 -4 -2 1 0 0 3 5 6 6 6 6 5 6 6 6 6 6 6 6 6 6 5 5 5 5 4 4 4 3 3 2 2 2 2
-4 -4 -4 -4 -4 -3 -4 -4 -3 -4 -5 -2 0 0 2 4 5 5 7 6 6 6 6 6 6 6 6 6 6 5 5 5 5 4 4 4 4 3 3 2 2 2 1 1
-5 -4 -4 -4 -3 -4 -4 -4 -2 -3 -2 -1 2 2 3 5 6 6 6 7 7 7 6 6 6 6 5 5 5 5 5 4 4 4 4 4 3 3 2 2 2 1 1 1
-5 -5 -3 -3 -4 -5 -4 -3 -4 -4 -3 -2 1 1 3 6 7 6 8 8 8 7 6 6 6 5 5 5 5 5 4 4 4 4 4 3 3 2 2 2 1 1 0 -0
-4 -5 -4 -4 -4 -3 -4 -4 -3 -2 -2 0 1 2 5 5 8 7 8 8 8 7 6 6 5 4 4 4 4 4 4 4 4 3 3 3 2 2 1 1 1 0 -0 -1
-3 -5 -5 -4 -3 -4 -4 -3 -4 -3 -2 -1 -1 2 6 6 7 7 7 7 7 7 6 5 4 4 4 4 4 4 3 3 3 3 3 2 2 2 1 1 0 -0 -1 -1
-4 -5 -4 -4 -4 -4 -4 -4 -3 -2 -0 -1 -1 2 6 6 6 6 7 7 6 6 5 4 4 5 4 4 4 4 3 3 3 3 2 2 2 1 1 0 -0 -1 -1 -1
-3 -4 -4 -3 -2 -1 -3 -3 -3 -2 -1 -1 -2 0 2 6 6 6 6 6 6 5 5 5 5 5 4 4 4 3 3 3 3 2 2 1 1 1 0 -0 -1 -1 -1 -2
-3 -4 -3 -3 -3 -2 -2 -2 -2 -1 -1 -1 -0 -0 4 6 6 7 6 6 5 5 5 5 5 4 4 4 3 3 3 3 2 2 1 1 1 1 -0 -1 -1 -1 -2 -2
-3 -3 -3 -1 0 -1 -1 -1 -1 -1 -2 -1 -1 -1 5 6 6 6 6 6 6 5 5 4 4 3 3 3 3 3 3 2 2 1 1 1 1 -0 -0 -1 -1 -2 -2 -3
-3 -3 -2 -1 -0 -0 -0 -0 -1 -1 -1 -1 -1 1 5 6 6 6 6 5 5 5 5 5 4 4 4 3 3 2 2 1 1 1 1 0 0 -0 -1 -1 -2 -2 -3 -3
-2 -2 -2 -1 -0 -0 1 2 1 -1 0 -0 0 5 5 6 6 5 5 5 5 5 5 4 4 4 3 3 2 2 1 1 1 0 0 0 -0 -1 -2 -2 -3 -3 -3 -4
-2 -2 -1 -0 0 2 3 2 1 0 2 2 4 5 5 4 4 4 4 4 4 4 4 4 3 3 2 2 1 1 0 0 0 0 -0 -0 -1 -2 -2 -3 -3 -4 -4 -5
-1 -1 -1 -1 -1 1 3 3 3 3 3 4 4 4 4 4 4 4 4 4 4 4 3 3 2 2 1 1 1 0 0 0 -0 -0 -1 -1 -2 -3 -3 -3 -4 -5 -5 -6
-1 -1 -1 -1 -1 2 3 3 3 3 4 5 5 4 4 4 4 4 4 3 3 3 2 2 1 1 1 0 0 -0 -0 -0 -0 -1 -2 -2 -3 -3 -4 -4 -5 -5 -6 -6
-1 -1 -1 -1 -1 -1 3 3 3 4 4 4 5 4 4 4 3 3 3 3 2 2 2 1 1 0 -0 -0 -0 -0 -1 -1 -1 -2 -2 -3 -3 -4 -5 -6 -6 -6 -7 -7
0 0 -0 1 2 2 2 3 3 4 4 4 5 5 4 3 3 3 3 2 2 2 1 0 -0 -0 -0 -1 -1 -1 -1 -2 -2 -3 -3 -3 -4 -5 -6 -6 -6 -7 -8 -8
0 0 -0 1 2 2 2 3 3 3 4 4 4 4 4 3 2 2 2 1 1 1 0 -0 -0 -1 -1 -1 -1 -2 -2 -2 -3 -3 -4 -5 -6 -6 -6 -7 -7 -8 -8 -9
1 1 1 2 2 2 3 3 3 3 3 3 4 4 3 3 3 2 1 1 0 -0 -0 -0 -1 -1 -1 -1 -2 -2 -2 -3 -3 -4 -5 -6 -6 -6 -7 -8 -8 -9 -9 -10
2 2 2 3 2 2 2 3 2 3 3 3 3 3 3 2 1 1 0 -0 -0 -1 -1 -1 -1 -1 -1 -2 -2 -2 -3 -4 -4 -5 -6 -6 -7 -7 -8 -8 -9 -10 -10 -10
Height
3052 3052 3048 3053 3057 3058 3059 3058 3057 3062 3066 3067 3064 3060 3064 3070 3071 3072 3076 3079 3081 3082 3086 3088 3089 3089 3090 3090 3091 3093 3095 3097 3100 3102 3104 3104 3104 3104 3104 3103 3103 3102 3101 3099
3048 3041 3046 3051 3052 3054 3055 3054 3052 3058 3063 3064 3058 3050 3054 3058 3058 3065 3069 3071 3075 3077 3080 3083 3084 3085 3085 3086 3087 3090 3092 3094 3096 3098 3099 3100 3101 3101 3101 3100 3099 3098 3097 3095
3039 3039 3044 3044 3046 3048 3047 3048 3053 3055 3058 3054 3055 3041 3045 3047 3051 3056 3060 3065 3068 3070 3075 3077 3078 3080 3082 3083 3084 3087 3089 3091 3092 3093 3095 3097 3097 3098 3098 3097 3096 3095 3093 3092
3034 3037 3039 3037 3039 3044 3040 3046 3050 3052 3056 3052 3054 3038 3035 3039 3040 3045 3050 3054 3061 3063 3068 3070 3072 3075 3078 3079 3081 3083 3085 3087 3089 3091 3092 3094 3094 3095 3094 3093 3093 3091 3089 3087
3025 3028 3032 3032 3033 3039 3038 3045 3047 3049 3049 3049 3043 3046 3022 3031 3028 3032 3038 3044 3052 3055 3061 3064 3067 3071 3073 3076 3078 3080 3082 3084 3086 3087 3089 3091 3091 3092 3091 3090 3089 3087 3085 3083
3023 3024 3026 3025 3031 3034 3038 3042 3044 3045 3047 3037 3025 3038 3012 3017 3018 3026 3031 3039 3045 3048 3052 3058 3061 3064 3068 3071 3074 3077 3079 3081 3083 3085 3086 3088 3089 3089 3088 3087 3085 3083 3081 3078
3015 3015 3019 3021 3026 3030 3034 3039 3040 3040 3038 3021 3021 3025 3006 3009 3013 3018 3024 3031 3035 3040 3045 3051 3055 3059 3063 3067 3070 3072 3075 3077 3079 3081 3083 3084 3085 3085 3084 3083 3081 3079 3076 3072
3008 3011 3010 3013 3018 3022 3024 3029 3029 3030 3027 3020 3021 3006 2996 3003 3009 3015 3018 3022 3029 3033 3039 3045 3050 3054 3059 3062 3065 3069 3071 3074 3076 3078 3080 3081 3081 3080 3080 3078 3076 3073 3069 3065
3004 3004 3005 3008 3013 3018 3020 3019 3020 3024 3020 3019 3007 2997 2995 2999 3000 3002 3009 3012 3017 3023 3032 3039 3045 3049 3053 3058 3062 3065 3068 3070 3073 3074 3076 3077 3077 3076 3074 3072 3070 3067 3063 3060
3000 3002 3002 3003 3005 3008 3011 3016 3021 3023 3021 3012 2998 2995 2990 2989 2991 2994 2999 3005 3012 3019 3026 3033 3039 3044 3049 3053 3057 3061 3064 3067 3069 3071 3072 3072 3072 3071 3069 3067 3064 3061 3057 3053
2995 2997 2997 2997 2994 2998 3004 3006 3010 3012 3011 3002 2995 2987 2981 2984 2988 2991 2997 3006 3011 3016 3023 3029 3035 3039 3044 3048 3053 3057 3060 3063 3065 3067 3067 3068 3067 3066 3064 3061 3058 3055 3051 3046
2989 2990 2987 2983 2986 2990 2992 2995 3001 3003 3005 3003 2999 2984 2979 2983 2988 2993 2999 3005 3011 3016 3020 3026 3031 3035 3038 3044 3049 3053 3057 3059 3061 3062 3063 3063 3062 3060 3058 3055 3052 3048 3044 3039
2981 2980 2979 2974 2977 2978 2978 2985 2993 3001 3002 2998 2998 2983 2980 2981 2986 2994 2999 3003 3008 3013 3018 3022 3026 3030 3035 3041 3046 3050 3053 3055 3057 3057 3058 3057 3056 3054 3051 3049 3045 3041 3036 3031
2976 2972 2970 2966 2958 2961 2968 2977 2983 2991 2992 2989 2985 2984 2981 2981 2986 2992 2996 3002 3006 3011 3016 3020 3023 3028 3033 3039 3043 3047 3049 3051 3052 3053 3053 3052 3050 3048 3045 3042 3038 3033 3029 3023
2971 2966 2961 2956 2955 2961 2966 2968 2975 2981 2982 2987 2983 2986 2982 2983 2987 2992 2997 3001 3006 3010 3014 3018 3022 3026 3031 3035 3039 3042 3044 3046 3047 3047 3047 3046 3044 3041 3038 3034 3030 3025 3020 3015
2966 2961 2957 2948 2944 2954 2961 2967 2972 2979 2982 2983 2986 2978 2985 2986 2989 2993 2997 3001 3005 3009 3013 3016 3019 3023 3028 3033 3036 3037 3039 3041 3042 3042 3041 3039 3037 3034 3030 3026 3023 3018 3013 3007
2966 2961 2959 2955 2954 2956 2963 2961 2966 2973 2976 2980 2983 2981 2984 2986 2990 2994 2998 3002 3006 3009 3012 3014 3017 3021 3025 3028 3031 3033 3034 3035 3036 3035 3035 3033 3029 3026 3023 3019 3015 3010 3005 2999
2966 2965 2962 2958 2958 2960 2960 2958 2959 2964 2969 2971 2979 2982 2983 2987 2991 2994 2997 3002 3005 3008 3011 3013 3016 3019 3021 3024 3026 3027 3029 3030 3030 3029 3028 3025 3023 3020 3016 3012 3007 3002 2997 2991
2967 2968 2967 2964 2962 2962 2961 2961 2963 2966 2970 2975 2979 2980 2982 2986 2990 2992 2996 3000 3004 3006 3009 3011 3014 3016 3018 3020 3021 3022 3023 3024 3024 3023 3021 3019 3015 3012 3009 3004 3000 2994 2990 2984
2967 2967 2970 2967 2965 2963 2964 2964 2965 2967 2969 2970 2973 2976 2980 2984 2986 2990 2995 2998 3001 3003 3006 3008 3010 3012 3014 3015 3016 3017 3018 3018 3018 3016 3014 3011 3009 3005 3001 2997 2992 2987 2982 2976
2965 2966 2967 2968 2966 2961 2963 2963 2964 2967 2970 2967 2969 2973 2976 2980 2985 2989 2992 2995 2997 3000 3002 3004 3006 3008 3009 3010 3012 3013 3013 3012 3011 3009 3007 3005 3002 2998 2994 2990 2985 2980 2975 2969
2962 2964 2965 2967 2967 2964 2961 2963 2966 2967 2967 2966 2967 2971 2974 2978 2982 2985 2988 2991 2994 2996 2998 3000 3002 3004 3005 3007 3008 3008 3007 3006 3005 3003 3001 2998 2995 2991 2987 2983 2978 2972 2966 2961
2960 2960 2961 2963 2962 2962 2962 2964 2965 2967 2968 2969 2969 2971 2974 2977 2980 2984 2986 2988 2990 2992 2994 2996 2999 3001 3002 3003 3003 3003 3002 3001 2999 2997 2994 2991 2988 2984 2980 2975 2970 2966 2961 2954
2956 2957 2958 2960 2959 2960 2962 2964 2965 2967 2968 2969 2970 2971 2973 2976 2979 2982 2984 2986 2988 2991 2993 2995 2996 2997 2998 2998 2997 2997 2997 2995 2993 2990 2988 2984 2981 2977 2973 2968 2963 2958 2951 2945
2956 2955 2955 2956 2958 2959 2960 2962 2965 2966 2967 2969 2970 2972 2973 2975 2977 2980 2982 2984 2987 2989 2991 2992 2993 2994 2994 2994 2994 2992 2991 2988 2986 2984 2981 2978 2975 2972 2968 2963 2957 2952 2944 2936
2951 2952 2954 2954 2955 2958 2958 2961 2964 2965 2967 2968 2969 2971 2972 2975 2977 2979 2982 2984 2986 2988 2988 2989 2990 2990 2989 2988 2987 2986 2984 2983 2981 2978 2976 2973 2970 2966 2961 2957 2953 2945 2937 2930
Wind_Speed
31 37 39 39 35 33 35 27 32 28 16 30 30 41 43 41 40 39 38 32 28 27 23 25 25 22 20 21 24 28 25 23 20 19 19 20 18 16 16 16 17 18 19 20
28 33 32 29 31 38 35 37 40 32 26 25 29 43 35 43 44 38 32 31 29 30 28 26 25 21 18 19 19 18 19 19 18 18 18 17 16 15 14 16 17 18 18 20
34 26 19 29 32 31 37 42 38 34 29 31 32 42 40 39 42 43 36 33 28 34 31 26 23 21 18 19 17 17 17 16 16 17 16 14 13 13 14 15 16 17 17 20
28 30 19 16 27 32 35 32 32 31 21 16 5 18 30 31 44 42 38 40 35 35 34 30 28 22 21 21 18 17 16 16 16 15 14 13 13 13 12 13 15 16 19 22
27 24 31 37 36 26 29 26 25 19 19 23 35 23 35 30 36 43 45 43 40 39 40 34 30 26 23 23 20 18 17 16 16 15 14 13 10 9 10 13 15 18 20 23
38 26 25 30 26 36 22 17 18 15 16 13 40 23 32 41 39 35 36 43 41 40 41 37 33 32 25 25 22 20 19 19 17 15 13 11 8 8 10 13 16 19 21 24
32 36 22 22 20 22 31 23 4 6 8 10 9 23 43 16 34 26 30 41 40 43 44 38 36 34 30 26 24 22 21 19 17 15 13 10 8 9 11 14 17 21 24 26
23 12 36 35 35 25 31 31 10 6 3 6 26 15 23 29 45 36 33 37 40 47 42 39 37 34 32 27 26 24 23 20 17 15 13 10 10 12 15 18 21 24 27 30
10 14 16 29 26 28 22 30 36 12 18 9 17 15 36 36 27 33 33 39 42 46 47 40 38 36 31 27 28 26 24 21 19 17 13 12 13 15 18 21 24 27 30 32
14 8 13 19 19 25 34 25 15 20 6 5 5 11 23 25 30 26 33 34 30 37 45 41 38 34 28 29 30 28 25 21 18 16 15 14 15 18 21 24 27 30 33 35
30 24 13 23 32 31 30 38 21 21 19 3 4 11 23 23 33 25 31 31 26 26 34 36 35 31 28 32 32 29 25 21 18 18 17 17 18 21 24 27 30 32 35 37
24 16 22 38 33 27 40 45 43 17 13 25 13 13 19 19 32 29 24 22 22 24 23 26 27 27 29 32 32 29 25 22 20 19 19 19 21 24 28 30 33 34 37 39
20 16 12 10 22 27 27 41 43 33 24 18 7 11 22 23 29 23 19 23 23 23 21 22 23 25 29 31 31 28 26 24 22 21 21 22 24 27 30 33 34 36 39 40
19 21 21 16 4 19 31 40 43 43 29 24 26 26 15 23 25 22 20 18 20 19 19 20 23 25 27 29 28 27 27 26 24 24 23 25 27 30 32 34 35 39 40 40
15 21 24 31 34 20 29 36 41 39 33 22 29 18 23 21 20 19 18 19 19 18 18 18 22 25 26 27 27 27 27 27 27 26 26 27 29 31 33 34 38 39 39 41
25 25 22 13 7 20 29 27 36 38 31 36 41 27 16 19 19 20 19 17 15 13 12 12 16 22 24 24 23 25 26 28 27 26 27 29 30 31 33 37 38 38 39 40
20 17 17 9 11 16 12 27 34 35 37 40 37 16 20 20 21 17 11 11 10 8 9 9 9 12 18 21 22 23 25 25 26 27 28 29 30 33 35 36 36 38 39 39
12 12 12 6 4 3 2 5 21 35 23 25 19 14 18 17 19 13 13 10 6 4 3 7 12 14 15 17 20 22 22 23 24 26 27 29 32 33 33 35 36 37 37 37
10 8 7 6 5 6 7 6 17 26 22 24 23 17 16 15 15 15 12 9 7 5 5 5 10 14 15 15 16 17 19 20 23 25 28 29 30 31 33 34 35 35 35 37
12 7 9 5 3 2 5 5 7 11 12 15 20 23 24 19 21 18 15 13 11 10 9 8 10 13 14 15 16 17 18 20 22 25 27 28 29 31 32 32 33 33 36 37
12 12 13 11 4 5 3 5 5 6 2 9 15 19 18 16 19 17 13 12 12 12 12 12 12 14 14 14 15 16 18 21 24 26 27 28 28 29 30 30 31 34 36 38
15 10 10 9 4 8 3 7 3 3 8 5 10 15 15 15 15 14 15 14 13 12 13 14 14 13 13 13 15 17 20 22 24 25 25 26 27 28 28 29 32 35 38 40
11 16 9 10 6 7 6 6 6 6 3 3 7 9 12 11 13 14 13 12 12 12 12 12 11 12 13 15 17 19 20 21 22 22 23 25 25 26 28 31 34 36 38 41
21 12 16 13 12 9 7 9 8 6 5 4 5 5 7 10 13 13 14 12 12 11 11 11 11 13 15 17 17 18 18 19 21 22 22 23 24 26 29 33 36 38 40 41
16 12 12 16 12 9 15 12 5 2 2 4 3 5 6 8 10 10 10 11 10 9 9 11 13 14 14 14 15 16 18 19 20 20 21 23 25 28 30 33 36 38 39 42
16 15 13 10 5 8 7 11 5 3 3 4 3 4 8 10 9 10 10 8 7 8 10 10 10 10 11 13 15 17 18 18 19 20 22 24 27 30 33 34 34 36 39 41
Wind_Direction
221 231 236 239 234 238 238 247 255 251 250 252 248 256 252 245 244 243 244 232 240 238 236 248 251 254 253 245 237 237 237 237 241 244 248 257 261 260 265 273 280 285 292 298
228 235 241 243 244 242 242 247 251 257 254 250 262 255 249 241 238 243 239 223 228 230 240 248 244 250 250 239 233 228 225 228 234 240 241 243 246 254 266 275 280 287 293 295
232 242 250 249 241 241 242 244 251 259 263 243 261 268 256 242 240 238 240 226 225 232 233 242 247 252 244 236 229 224 226 225 223 226 231 239 249 260 266 273 281 285 289 292
243 245 231 238 238 239 248 246 251 256 267 266 249 278 269 255 242 234 232 226 219 231 237 237 247 252 241 235 228 224 223 222 221 223 228 238 249 258 268 277 280 284 291 298
236 243 234 235 243 243 249 256 253 257 262 275 264 268 268 257 249 236 229 219 217 234 238 237 243 248 244 234 230 225 224 223 221 224 233 241 246 258 273 279 284 290 296 302
242 247 233 242 243 238 235 240 241 243 260 246 250 232 266 249 246 241 235 222 223 233 234 229 236 246 247 234 229 223 221 221 223 228 231 229 242 269 283 286 289 296 302 306
235 230 222 218 224 228 231 236 255 224 210 240 254 224 240 256 236 248 230 231 227 230 226 227 234 237 240 236 231 223 222 222 224 223 222 232 256 282 296 299 301 306 308 312
222 236 227 231 233 223 220 212 206 208 214 255 239 244 238 263 247 258 235 231 235 228 226 229 233 238 241 240 228 222 222 222 222 220 226 248 277 296 303 307 310 311 313 315
213 229 233 230 239 228 221 213 223 270 294 263 236 258 265 251 231 217 242 226 223 229 224 223 233 237 240 235 224 221 219 220 220 225 242 265 284 299 303 307 310 310 312 313
231 240 224 223 216 224 224 232 192 213 236 234 249 250 239 244 233 227 205 202 212 217 217 223 231 234 231 224 220 218 216 219 225 237 253 270 288 298 302 304 307 308 310 312
227 232 227 221 224 228 217 224 213 218 227 276 257 241 260 226 212 219 203 205 205 203 217 225 226 224 226 218 216 217 220 225 233 245 259 274 289 297 299 302 305 306 308 309
239 238 239 244 249 249 244 226 211 214 206 236 286 285 240 226 215 208 194 201 201 203 211 215 221 225 217 212 215 217 221 228 237 250 263 276 287 293 297 300 302 304 306 308
235 229 250 269 232 220 223 210 222 214 209 233 220 264 217 219 202 196 202 200 203 201 203 209 215 214 209 211 215 219 224 232 242 253 265 276 285 291 295 298 299 302 306 308
247 236 232 236 328 195 202 199 207 205 219 226 244 274 270 187 186 184 187 194 191 196 204 208 208 207 208 212 218 224 229 236 246 256 266 276 284 290 294 296 300 303 306 307
245 258 275 268 265 241 193 197 203 207 218 229 252 277 200 171 177 177 176 180 187 192 198 206 212 212 212 216 221 228 234 241 248 257 267 277 285 291 294 297 300 303 305 307
260 269 303 342 166 174 190 205 203 210 222 241 240 281 190 172 164 159 156 156 161 165 174 191 205 212 218 222 228 235 240 245 251 259 268 279 286 290 295 297 300 302 305 308
261 281 326 6 122 145 166 198 203 211 210 230 237 230 185 170 162 159 160 154 159 168 182 189 188 198 209 220 230 238 244 248 252 261 272 281 288 292 294 296 299 303 307 308
290 312 312 346 86 50 23 217 217 221 214 212 225 163 172 175 174 175 156 165 157 139 163 196 203 204 211 223 234 242 246 249 257 268 279 285 288 291 294 297 301 306 307 307
263 268 305 334 316 316 79 76 193 202 222 219 219 196 173 177 193 193 189 193 203 206 206 220 226 225 230 238 243 243 244 255 267 276 281 286 290 292 296 301 304 305 307 309
237 252 241 336 339 27 116 48 179 186 223 203 205 212 219 205 204 212 218 222 222 218 223 235 233 230 236 241 239 244 254 265 276 282 285 288 291 295 299 302 303 305 308 312
204 222 233 251 307 295 207 61 117 162 251 196 202 207 215 220 230 232 222 221 229 233 242 242 243 241 237 237 246 260 271 276 280 284 287 290 295 298 301 303 304 307 312 316
191 188 212 223 251 281 222 215 167 115 100 98 182 195 204 214 224 225 234 235 226 229 241 244 236 228 234 249 262 269 274 278 282 286 291 294 299 301 301 303 308 313 315 316
212 221 202 209 226 220 186 162 175 152 139 105 124 166 176 198 217 229 237 232 232 237 231 222 224 237 250 260 267 272 277 282 287 290 295 299 298 299 303 309 312 315 315 315
230 230 227 237 228 211 188 182 155 163 151 124 117 134 176 192 211 223 225 216 210 212 216 223 237 252 262 269 274 278 283 287 292 297 298 297 299 305 310 313 316 317 317 318
230 223 231 234 216 233 222 192 163 156 132 165 172 162 167 175 186 180 188 191 198 208 226 244 255 260 265 273 282 288 292 296 298 297 297 301 305 308 312 315 315 316 319 322
235 248 248 284 271 212 192 198 211 216 212 193 172 170 170 164 168 171 176 187 213 237 250 255 262 275 286 292 296 298 298 297 297 298 301 304 308 312 313 314 315 318 322 323